Date String (YYYY-MM-DD hh:mm:ss) UTC,Instrument flags,absolute air pressure of the measurement (hPa),sample flow rate (lpm),inlet stack bypass flow (lpm),air temperature of the measurement (°C),ambient temperature measured by the external sensor (°C),aerosol sample conditioner tube jacket temperature (°C),OPC LED temperature (°C),internal box temperature (°C),relative humidity of the measurement (%),span deviation,mass concentration of particles derived from Lorenz-Mie calculation of OPC scattering (μg/m³),mass concentration of particles derived from Lorenz-Mie calculation of OPC scattering (μg/m³),mass concentration of particles derived from Lorenz-Mie calculation of OPC scattering (μg/m³)
DateTimeUTC,F1_M11,P_M11,Q1_M11,Q2_M11,T1_M11,T2_M11,T3_M11,T4_M11,T5_M11,U1_M11,ZSPAN_M11,X2_M11,X0_M11,X1_M11
2023-12-28 17:00:00,SystemResetWarning,0834.3,5.00,000.00,019.2,018.7,000.0,027.4,020.7,10.2,0000.0,0000.87,0001.54,0000.55
2023-12-28 17:01:00,SystemResetWarning,0834.2,4.98,000.00,019.2,018.7,000.0,027.4,020.7,11.6,0000.0,0000.82,0001.47,0000.53
2023-12-28 17:02:00,SystemResetWarning,0834.2,5.00,000.00,019.2,018.7,000.0,027.4,020.7,11.6,0000.0,0000.79,0001.37,0000.52
2023-12-28 17:03:00,SystemResetWarning,0834.2,5.01,000.00,019.3,018.7,000.0,027.4,020.7,11.5,0000.0,0000.79,0001.35,0000.51
2023-12-28 17:04:00,SystemResetWarning,0834.2,5.01,000.00,019.3,018.7,000.0,027.5,020.7,11.4,0000.0,0000.78,0001.32,0000.50
2023-12-28 17:05:00,SystemResetWarning,0834.2,5.00,000.00,019.3,018.7,000.0,027.5,020.7,11.5,0000.0,0000.74,0001.21,0000.48
2023-12-28 17:06:00,SystemResetWarning,0834.2,4.99,000.00,019.3,018.8,000.0,027.5,020.8,11.5,0000.0,0000.71,0001.24,0000.48
2023-12-28 17:07:00,SystemResetWarning,0834.1,5.00,000.00,019.3,018.8,000.0,027.5,020.8,11.2,0000.0,0000.69,0001.23,0000.48
2023-12-28 17:08:00,SystemResetWarning,0834.2,5.00,000.00,019.3,018.8,000.0,027.5,020.8,11.3,0000.0,0000.68,0001.19,0000.47
2023-12-28 17:09:00,SystemResetWarning,0834.2,5.00,000.00,019.4,018.8,000.0,027.5,020.8,11.5,0000.0,0000.68,0001.18,0000.47
2023-12-28 17:10:00,SystemResetWarning,0834.2,5.00,000.00,019.4,018.8,000.0,027.5,020.8,11.6,0000.0,0000.72,0001.27,0000.48
2023-12-28 17:11:00,SystemResetWarning,0834.2,5.00,000.00,019.4,018.9,000.0,027.6,020.8,11.8,0000.0,0000.77,0001.37,0000.50
2023-12-28 17:12:00,SystemResetWarning,0834.2,5.00,000.00,019.4,018.9,000.0,027.6,020.8,12.7,0000.0,0000.82,0001.59,0000.53
2023-12-28 17:13:00,SystemResetWarning,0834.2,5.00,000.00,019.4,018.9,000.0,027.6,020.8,12.9,0000.0,0000.87,0001.71,0000.56
2023-12-28 17:14:00,SystemResetWarning,0834.1,5.01,000.00,019.4,018.9,000.0,027.6,020.9,12.6,0000.0,0000.87,0001.71,0000.57
2023-12-28 17:15:00,SystemResetWarning,0834.1,5.00,000.00,019.4,018.9,000.0,027.6,020.9,11.6,0000.0,0000.85,0001.65,0000.57
2023-12-28 17:16:00,SystemResetWarning,0834.1,4.99,000.00,019.5,018.9,000.0,027.6,020.9,10.2,0000.0,0000.88,0001.73,0000.59
2023-12-28 17:17:00,SystemResetWarning,0834.1,4.99,000.00,019.5,018.9,000.0,027.7,020.9,10.1,0000.0,0000.89,0002.67,0000.59
2023-12-28 17:18:00,SystemResetWarning,0834.1,5.00,000.00,019.5,019.0,000.0,027.7,020.9,9.5,0000.0,0000.89,0002.65,0000.59
2023-12-28 17:19:00,SystemResetWarning,0834.1,5.00,000.00,019.5,019.0,000.0,027.7,021.0,9.4,0000.0,0000.90,0002.70,0000.60
2023-12-28 17:20:00,SystemResetWarning,0834.1,5.00,000.00,019.5,019.0,000.0,027.7,021.0,10.4,0000.0,0000.90,0002.84,0000.61
2023-12-28 17:21:00,SystemResetWarning,0834.1,5.01,000.00,019.5,019.0,000.0,027.7,021.0,9.9,0000.0,0000.95,0002.98,0000.65
2023-12-28 17:22:00,SystemResetWarning,0834.2,5.00,000.00,019.5,019.0,000.0,027.7,021.0,9.3,0000.0,0000.96,0002.97,0000.68
2023-12-28 17:23:00,SystemResetWarning,0834.1,5.01,000.00,019.6,019.0,000.0,027.7,021.0,9.8,0000.0,0001.01,0002.99,0000.70
2023-12-28 17:24:00,SystemResetWarning,0834.2,5.00,000.00,019.6,019.1,000.0,027.7,021.0,12.2,0000.0,0001.01,0002.91,0000.71
2023-12-28 17:25:00,SystemResetWarning,0834.2,4.99,000.00,019.6,019.1,000.0,027.8,021.1,12.5,0000.0,0001.01,0002.86,0000.72
2023-12-28 17:26:00,SystemResetWarning,0834.1,5.00,000.00,019.6,019.1,000.0,027.8,021.1,12.1,0000.0,0001.01,0002.87,0000.71
2023-12-28 17:27:00,SystemResetWarning,0834.1,5.00,000.00,019.6,019.1,000.0,027.8,021.1,12.0,0000.0,0000.96,0002.75,0000.70
2023-12-28 17:28:00,SystemResetWarning,0834.1,4.99,000.00,019.6,019.1,000.0,027.8,021.1,11.9,0000.0,0000.94,0001.91,0000.69
2023-12-28 17:29:00,SystemResetWarning,0834.1,5.00,000.00,019.7,019.1,000.0,027.8,021.1,11.6,0000.0,0000.95,0001.80,0000.69
2023-12-28 17:30:00,SystemResetWarning,0834.1,5.00,000.00,019.7,019.2,000.0,027.8,021.1,11.6,0000.0,0000.96,0001.80,0000.70
2023-12-28 17:31:00,SystemResetWarning,0834.1,5.00,000.00,019.7,019.2,000.0,027.9,021.1,11.7,0000.0,0000.96,0002.19,0000.69
2023-12-28 17:32:00,SystemResetWarning,0834.0,5.00,000.00,019.7,019.2,000.0,027.9,021.1,10.0,0000.0,0000.93,0003.20,0000.65
2023-12-28 17:33:00,SystemResetWarning,0834.0,5.00,000.00,019.7,019.2,000.0,027.9,021.2,9.3,0000.0,0000.93,0003.24,0000.63
2023-12-28 17:34:00,SystemResetWarning,0834.0,5.01,000.00,019.7,019.2,000.0,027.9,021.2,9.5,0000.0,0000.98,0003.32,0000.66
2023-12-28 17:35:00,SystemResetWarning,0834.0,5.00,000.00,019.7,019.2,000.0,027.9,021.2,9.6,0000.0,0001.01,0003.37,0000.69
2023-12-28 17:36:00,SystemResetWarning,0834.0,5.00,000.00,019.8,019.3,000.0,027.9,021.2,9.5,0000.0,0001.05,0003.59,0000.72
2023-12-28 17:37:00,SystemResetWarning,0834.0,5.00,000.00,019.8,019.3,000.0,028.0,021.2,9.8,0000.0,0001.14,0003.77,0000.78
2023-12-28 17:38:00,SystemResetWarning,0834.0,5.00,000.00,019.8,019.3,000.0,028.0,021.2,9.8,0000.0,0001.27,0004.00,0000.84
2023-12-28 17:39:00,SystemResetWarning,0834.0,5.00,000.00,019.8,019.3,000.0,028.0,021.3,10.0,0000.0,0001.34,0004.12,0000.90
2023-12-28 17:40:00,SystemResetWarning,0834.0,5.00,000.00,019.8,019.3,000.0,028.0,021.3,10.2,0000.0,0001.44,0004.39,0000.96
2023-12-28 17:41:00,SystemResetWarning,0834.0,5.00,000.00,019.8,019.3,000.0,028.0,021.3,10.4,0000.0,0001.53,0004.72,0000.99
2023-12-28 17:42:00,SystemResetWarning,0834.0,5.00,000.00,019.9,019.3,000.0,028.0,021.3,10.4,0000.0,0001.57,0004.33,0001.00
2023-12-28 17:43:00,SystemResetWarning,0833.9,5.00,000.00,019.9,019.3,000.0,028.0,021.3,10.1,0000.0,0001.59,0003.19,0001.01
2023-12-28 17:44:00,SystemResetWarning,0833.9,5.00,000.00,019.9,019.4,000.0,028.1,021.3,10.4,0000.0,0001.56,0003.10,0001.00
2023-12-28 17:45:00,SystemResetWarning,0833.9,5.00,000.00,019.9,019.4,000.0,028.1,021.4,10.0,0000.0,0001.47,0003.65,0000.95
2023-12-28 17:46:00,SystemResetWarning,0833.9,5.00,000.00,019.9,019.4,000.0,028.1,021.4,9.8,0000.0,0001.41,0004.13,0000.91
2023-12-28 17:47:00,SystemResetWarning,0833.8,5.00,000.00,019.9,019.4,000.0,028.1,021.4,9.5,0000.0,0001.39,0004.04,0000.88
2023-12-28 17:48:00,SystemResetWarning,0833.8,5.00,000.00,019.9,019.4,000.0,028.1,021.4,9.6,0000.0,0001.33,0004.00,0000.84
2023-12-28 17:49:00,SystemResetWarning,0833.8,5.00,000.00,020.0,019.4,000.0,028.1,021.4,9.9,0000.0,0001.23,0004.49,0000.79
2023-12-28 17:50:00,SystemResetWarning,0833.8,5.00,000.00,020.0,019.5,000.0,028.2,021.5,9.7,0000.0,0001.20,0005.08,0000.76
2023-12-28 17:51:00,SystemResetWarning,0833.8,5.00,000.00,020.0,019.5,000.0,028.2,021.5,9.8,0000.0,0001.13,0005.60,0000.73
2023-12-28 17:52:00,SystemResetWarning,0833.8,5.00,000.00,020.0,019.5,000.0,028.2,021.5,9.6,0000.0,0001.05,0006.18,0000.71
2023-12-28 17:53:00,SystemResetWarning,0833.8,5.00,000.00,020.0,019.5,000.0,028.2,021.5,9.7,0000.0,0001.07,0006.18,0000.72
2023-12-28 17:54:00,SystemResetWarning,0833.8,5.01,000.00,020.0,019.5,000.0,028.2,021.5,9.5,0000.0,0001.06,0006.24,0000.73
2023-12-28 17:55:00,SystemResetWarning,0833.8,5.00,000.00,020.1,019.5,000.0,028.2,021.5,9.5,0000.0,0001.05,0006.28,0000.73
2023-12-28 17:56:00,SystemResetWarning,0833.8,5.01,000.00,020.1,019.5,000.0,028.2,021.5,9.5,0000.0,0001.06,0005.83,0000.72
2023-12-28 17:57:00,SystemResetWarning,0833.8,5.00,000.00,020.1,019.6,000.0,028.3,021.5,9.5,0000.0,0001.09,0005.05,0000.71
2023-12-28 17:58:00,SystemResetWarning,0833.8,4.99,000.00,020.1,019.6,000.0,028.3,021.6,9.1,0000.0,0001.04,0004.91,0000.70
2023-12-28 17:59:00,SystemResetWarning,0833.8,4.99,000.00,020.1,019.6,000.0,028.3,021.6,9.0,0000.0,0001.01,0004.78,0000.68
